Tracking 19638 objects as of 18-Apr-2019
HD Live streaming from Space Station
objects crossing your sky now

THORAD AGENA D DEB

Track THORAD AGENA D DEB now!
10-day predictions


NORAD ID: 5026
Int'l Code: 1970-025JA
Perigee: 974.9 km
Apogee: 1,026.9 km
Inclination: 100.2 °
Period: 105.0 minutes
Semi major axis: 7371 km
RCS: 0.035 m2 (small)
Launch date: April 8, 1970
Source: United States (US)
Launch site: AIR FORCE WESTERN TEST RANGE (AFWTR)

Note: This is SATELLITE DEBRIS
aabbcc
Your satellite tracking list
Your tracking list is empty




NASA's NSSDC Master Catalog

Two Line Element Set (TLE):
1  5026U 70025JA  19107.72056182 +.00000383 +00000-0 +47850-3 0  9997
2  5026 100.2085 164.3021 0035253 241.5967 243.0345 13.71622077425200
Source of the keplerian elements: AFSPC